KZR721 UAAA-UACC

Flight info

Callsign KZR721
Flight time N/A
Altitude 38000
Route ETEDA1B ETEDA W333 BANOS BANOS1D
Aircraft B763/H-L/S

Departure

Time 2026-04-25 16:06
Airport Almaty International Airport (UAAA)

Arrival

Time N/A
Airport Nursultan Nazarbayev International Airport (UACC)
Time Latitude Longitude Altitude Speed Heading
2026-04-25 15:12 43.34444 77.01446 2237 ft 0 kts 65°
2026-04-25 16:01 43.34446 77.01452 2237 ft 2 kts 65°
2026-04-25 16:02 43.34456 77.01481 2237 ft 4 kts 69°
2026-04-25 16:02 43.34455 77.01518 2237 ft 4 kts 115°
2026-04-25 16:02 43.34438 77.01542 2237 ft 6 kts 137°
2026-04-25 16:02 43.34393 77.01584 2237 ft 7 kts 153°
2026-04-25 16:03 43.34352 77.01612 2238 ft 5 kts 154°
2026-04-25 16:03 43.34322 77.01632 2238 ft 4 kts 156°
2026-04-25 16:03 43.34299 77.01646 2238 ft 3 kts 156°
2026-04-25 16:03 43.34281 77.01657 2238 ft 4 kts 156°
2026-04-25 16:04 43.34246 77.01678 2238 ft 7 kts 157°
2026-04-25 16:04 43.34197 77.01708 2238 ft 7 kts 154°
2026-04-25 16:04 43.34150 77.01741 2238 ft 6 kts 142°
2026-04-25 16:04 43.34144 77.01771 2237 ft 4 kts 81°
2026-04-25 16:05 43.34153 77.01796 2237 ft 2 kts 58°
2026-04-25 16:05 43.34157 77.01806 2237 ft 1 kts 58°
2026-04-25 16:05 43.34238 77.01981 2237 ft 60 kts 57°
2026-04-25 16:06 43.34622 77.02752 2238 ft 134 kts 56°
2026-04-25 16:06 43.35253 77.04062 2368 ft 188 kts 57°
2026-04-25 16:06 43.36032 77.05617 3019 ft 199 kts 56°
2026-04-25 16:06 43.36833 77.07158 3560 ft 199 kts 54°
2026-04-25 16:07 43.37702 77.08824 3530 ft 227 kts 56°
2026-04-25 16:07 43.37995 77.09402 3612 ft 230 kts 55°
2026-04-25 16:07 43.39562 77.12423 4250 ft 233 kts 52°
2026-04-25 16:07 43.40782 77.13723 4690 ft 231 kts 21°
2026-04-25 16:08 43.42361 77.13981 5155 ft 228 kts 356°
2026-04-25 16:08 43.43943 77.13801 5593 ft 227 kts 352°
2026-04-25 16:08 43.45472 77.13304 6021 ft 224 kts 330°
2026-04-25 16:08 43.46636 77.11905 6355 ft 230 kts 307°
2026-04-25 16:09 43.47667 77.10044 6484 ft 256 kts 304°
2026-04-25 16:09 43.48751 77.07958 6769 ft 278 kts 303°
2026-04-25 16:09 43.49907 77.05706 7188 ft 297 kts 304°
2026-04-25 16:09 43.51133 77.03341 7746 ft 308 kts 304°
2026-04-25 16:10 43.51971 77.01750 8201 ft 312 kts 305°
2026-04-25 16:10 43.53996 76.98850 9103 ft 322 kts 327°
2026-04-25 16:10 43.56017 76.97498 9877 ft 323 kts 334°
2026-04-25 16:10 43.58089 76.96225 10367 ft 333 kts 334°
2026-04-25 16:11 43.60239 76.94930 10653 ft 348 kts 334°
2026-04-25 16:11 43.62421 76.93357 10958 ft 359 kts 328°
2026-04-25 16:11 43.64594 76.91602 11485 ft 363 kts 328°
2026-04-25 16:11 43.66784 76.89853 12075 ft 365 kts 328°
2026-04-25 16:12 43.69012 76.88149 12643 ft 367 kts 330°
2026-04-25 16:12 43.71332 76.86641 13192 ft 370 kts 334°
2026-04-25 16:12 43.73721 76.85241 13708 ft 373 kts 335°
2026-04-25 16:12 43.74532 76.84780 13881 ft 374 kts 335°
2026-04-25 16:13 43.78572 76.82592 14630 ft 377 kts 337°
2026-04-25 16:13 43.81022 76.81305 15080 ft 378 kts 337°
2026-04-25 16:13 43.83487 76.80018 15517 ft 379 kts 337°
2026-04-25 16:13 43.85967 76.78727 15949 ft 381 kts 337°
2026-04-25 16:14 43.88457 76.77431 16362 ft 383 kts 337°
2026-04-25 16:14 43.90927 76.76146 16759 ft 385 kts 337°
2026-04-25 16:14 43.93442 76.74838 17163 ft 387 kts 337°
2026-04-25 16:14 43.95968 76.73523 17558 ft 388 kts 337°
2026-04-25 16:15 43.98506 76.72205 17939 ft 390 kts 337°
2026-04-25 16:15 44.01053 76.70881 18287 ft 391 kts 337°
2026-04-25 16:15 44.03600 76.69559 18596 ft 393 kts 337°
2026-04-25 16:15 44.06175 76.68223 18872 ft 395 kts 337°
2026-04-25 16:16 44.08754 76.66888 19147 ft 396 kts 337°
2026-04-25 16:16 44.11351 76.65545 19427 ft 398 kts 337°
2026-04-25 16:16 44.13949 76.64202 19689 ft 399 kts 337°
2026-04-25 16:16 44.16558 76.62855 19930 ft 401 kts 337°
2026-04-25 16:17 44.19175 76.61506 20174 ft 402 kts 337°
2026-04-25 16:17 44.21808 76.60152 20455 ft 403 kts 337°
2026-04-25 16:17 44.24411 76.58812 20714 ft 405 kts 337°
2026-04-25 16:17 44.27058 76.57449 20998 ft 406 kts 338°
2026-04-25 16:18 44.29701 76.56091 21265 ft 408 kts 338°
2026-04-25 16:18 44.30619 76.55619 21357 ft 409 kts 338°
2026-04-25 16:18 44.35074 76.53328 21792 ft 411 kts 338°
2026-04-25 16:18 44.37762 76.51947 22005 ft 413 kts 338°
2026-04-25 16:19 44.40462 76.50563 22244 ft 414 kts 338°
2026-04-25 16:19 44.43172 76.49176 22471 ft 415 kts 338°
2026-04-25 16:19 44.45889 76.47787 22691 ft 417 kts 338°
2026-04-25 16:20 44.51354 76.44996 23122 ft 419 kts 338°
2026-04-25 16:20 44.54102 76.43597 23334 ft 420 kts 338°
2026-04-25 16:20 44.59605 76.40744 23711 ft 422 kts 337°
2026-04-25 16:21 44.62324 76.39304 23843 ft 424 kts 337°
2026-04-25 16:21 44.65083 76.37839 23985 ft 424 kts 336°
2026-04-25 16:21 44.67854 76.36367 24113 ft 425 kts 336°
2026-04-25 16:21 44.70624 76.34897 24241 ft 426 kts 336°
2026-04-25 16:22 44.73398 76.33429 24375 ft 426 kts 336°
2026-04-25 16:22 44.76180 76.31961 24492 ft 427 kts 337°
2026-04-25 16:22 44.78965 76.30493 24620 ft 428 kts 337°
2026-04-25 16:22 44.81734 76.29038 24737 ft 429 kts 336°
2026-04-25 16:23 44.84562 76.27556 24847 ft 430 kts 337°
2026-04-25 16:23 44.87365 76.26091 24965 ft 431 kts 337°
2026-04-25 16:23 44.90175 76.24617 25091 ft 431 kts 336°
2026-04-25 16:23 44.92981 76.23108 25232 ft 432 kts 336°
2026-04-25 16:24 44.95746 76.21584 25370 ft 432 kts 335°
2026-04-25 16:24 44.98542 76.20004 25500 ft 433 kts 335°
2026-04-25 16:24 45.01339 76.18405 25644 ft 434 kts 335°
2026-04-25 16:24 45.04145 76.16797 25750 ft 435 kts 335°
2026-04-25 16:25 45.06946 76.15192 25862 ft 436 kts 335°
2026-04-25 16:25 45.07904 76.14643 25903 ft 436 kts 335°
2026-04-25 16:25 45.12583 76.11961 26083 ft 437 kts 335°
2026-04-25 16:25 45.15409 76.10343 26189 ft 438 kts 335°
2026-04-25 16:26 45.18239 76.08725 26291 ft 439 kts 335°
2026-04-25 16:26 45.21075 76.07107 26392 ft 440 kts 335°
2026-04-25 16:26 45.23919 76.05485 26484 ft 440 kts 335°
2026-04-25 16:26 45.26750 76.03873 26572 ft 441 kts 335°
2026-04-25 16:27 45.29627 76.02237 26664 ft 442 kts 335°
2026-04-25 16:27 45.32451 76.00632 26753 ft 443 kts 335°
2026-04-25 16:27 45.35313 75.99007 26840 ft 443 kts 335°
2026-04-25 16:27 45.38187 75.97376 26922 ft 444 kts 335°
2026-04-25 16:28 45.41063 75.95747 27006 ft 445 kts 335°
2026-04-25 16:28 45.43942 75.94118 27081 ft 446 kts 335°
2026-04-25 16:28 45.46830 75.92484 27161 ft 446 kts 335°
2026-04-25 16:28 45.49724 75.90848 27232 ft 447 kts 335°
2026-04-25 16:29 45.52623 75.89211 27309 ft 448 kts 335°
2026-04-25 16:29 45.54542 75.88128 27352 ft 448 kts 335°
2026-04-25 16:29 45.57444 75.86491 27426 ft 449 kts 335°
2026-04-25 16:29 45.60344 75.84856 27503 ft 449 kts 335°
2026-04-25 16:30 45.64208 75.82679 27578 ft 450 kts 335°
2026-04-25 16:30 45.67123 75.81039 27641 ft 450 kts 335°
2026-04-25 16:30 45.69099 75.79927 27681 ft 451 kts 335°
2026-04-25 16:30 45.72001 75.78232 27742 ft 451 kts 333°
2026-04-25 16:31 45.74877 75.76440 27794 ft 451 kts 333°
2026-04-25 16:31 45.78669 75.74009 27873 ft 451 kts 333°
2026-04-25 16:31 45.81534 75.72153 27921 ft 452 kts 332°
2026-04-25 16:31 45.83430 75.70922 27965 ft 452 kts 332°
2026-04-25 16:32 45.86298 75.69056 28009 ft 453 kts 332°
2026-04-25 16:32 45.92038 75.65321 28100 ft 453 kts 332°
2026-04-25 16:33 45.97762 75.61597 28200 ft 454 kts 332°
2026-04-25 16:33 46.03561 75.57829 28292 ft 455 kts 332°
2026-04-25 16:34 46.09334 75.54069 28332 ft 456 kts 333°
2026-04-25 16:34 46.15116 75.50276 28424 ft 457 kts 332°
2026-04-25 16:35 46.20901 75.46479 28500 ft 457 kts 333°
2026-04-25 16:35 46.26669 75.42699 28573 ft 458 kts 333°
2026-04-25 16:36 46.32478 75.38897 28654 ft 459 kts 333°
2026-04-25 16:36 46.38302 75.35092 28730 ft 459 kts 333°
2026-04-25 16:37 46.44136 75.31288 28787 ft 460 kts 333°
2026-04-25 16:37 46.49990 75.27477 28855 ft 460 kts 333°
2026-04-25 16:38 46.55844 75.23673 28917 ft 461 kts 333°
2026-04-25 16:38 46.61676 75.19891 28976 ft 462 kts 333°
2026-04-25 16:39 46.67555 75.16084 29049 ft 462 kts 333°
2026-04-25 16:39 46.73446 75.12276 29086 ft 463 kts 333°
2026-04-25 16:40 46.79346 75.08467 29148 ft 463 kts 333°
2026-04-25 16:40 46.82278 75.06579 29441 ft 458 kts 333°
2026-04-25 16:40 46.85189 75.04712 29713 ft 454 kts 333°
2026-04-25 16:40 46.88068 75.02872 30009 ft 450 kts 333°
2026-04-25 16:41 46.90868 75.01091 30269 ft 446 kts 333°
2026-04-25 16:41 46.92815 74.99857 30429 ft 444 kts 333°
2026-04-25 16:41 46.99353 74.95736 31000 ft 436 kts 333°
2026-04-25 16:42 47.02137 74.93990 31248 ft 433 kts 333°
2026-04-25 16:42 47.04867 74.92283 31497 ft 431 kts 333°
2026-04-25 16:42 47.07649 74.90550 31753 ft 428 kts 333°
2026-04-25 16:42 47.10377 74.88855 32013 ft 425 kts 333°